Presure
224 235 187 189 171 190 181 173 173 181 118 157 170 115 100 108 189 176 164 155 95 103 125 172 156 142 134 106 151 179 110 149 168 116 132 137 115 110 138 107 129 119 90
225 223 232 214 193 201 202 196 189 181 194 122 171 160 126 139 156 124 167 179 129 140 174 124 105 106 146 135 158 107 120 157 150 113 123 122 171 133 135 132 97 125 110
231 245 219 220 231 236 196 201 164 199 193 96 164 172 155 182 108 172 156 102 106 104 146 109 109 106 106 164 170 123 160 169 172 154 113 156 131 133 122 130 84 108 120
233 214 212 238 232 221 228 212 203 185 205 182 157 168 149 167 171 103 165 178 169 101 104 109 106 106 110 106 104 107 150 128 181 173 168 176 112 166 110 112 111 109 108
244 243 244 231 221 243 224 217 230 220 190 205 191 187 182 171 144 123 134 110 181 173 104 103 104 103 106 105 134 107 109 106 140 113 113 134 142 136 207 121 166 125 168
243 255 260 245 264 219 241 249 214 217 218 106 188 187 192 189 162 167 181 172 155 172 188 174 153 103 103 104 133 104 103 103 106 104 173 125 159 140 191 135 138 184 111
249 284 292 273 258 268 270 238 253 225 212 230 233 190 192 172 194 154 189 169 168 161 154 104 103 101 113 108 110 97 105 140 102 103 104 185 104 108 121 105 135 102 132
338 350 341 314 292 285 274 272 239 254 237 216 223 233 164 193 165 193 173 136 110 140 152 178 181 118 103 104 102 108 110 162 111 116 104 114 102 184 131 143 113 139 104
336 340 348 360 365 352 327 285 282 261 219 246 223 215 232 166 134 200 190 179 178 109 166 181 121 149 117 101 106 108 107 101 103 103 106 122 134 154 133 152 174 107 102
339 340 341 339 341 345 350 366 298 282 265 257 248 224 215 223 232 84 196 183 165 163 176 191 172 151 135 166 149 104 107 157 103 112 107 135 137 127 162 151 98 111 103
467 457 454 450 451 347 351 358 367 361 280 269 254 250 226 217 221 230 160 85 178 180 176 164 176 175 157 179 151 158 182 193 170 172 165 193 186 157 165 157 157 108 122
417 411 407 406 409 411 419 426 354 366 368 283 273 252 248 225 213 217 225 229 136 150 170 188 166 160 163 168 160 160 187 172 182 142 175 161 171 163 160 128 165 139 136
385 379 376 378 380 386 394 402 408 382 358 370 284 282 251 246 227 216 206 217 227 229 230 166 210 144 166 154 156 150 159 169 124 169 96 190 172 166 168 164 132 147 183
361 357 357 359 360 366 370 378 390 398 412 350 353 289 287 250 248 230 216 212 218 219 222 233 171 224 217 174 165 165 132 162 179 174 113 188 159 171 161 96 165 201 96
345 340 342 343 347 350 355 361 371 383 391 409 365 347 293 277 248 245 230 216 217 211 212 215 198 89 167 173 98 95 173 183 162 124 173 160 175 175 100 180 193 158 222
336 334 337 337 336 340 351 358 359 369 382 390 419 476 341 314 280 248 244 230 218 219 207 215 219 147 92 163 127 113 98 179 170 175 130 175 153 150 142 174 150 178 207
327 329 331 341 347 387 386 393 417 365 372 380 395 445 461 337 331 285 244 241 228 215 219 207 214 220 210 167 211 83 192 91 163 115 153 114 89 169 154 177 149 164 190
326 327 344 390 401 391 421 424 426 428 439 374 378 400 447 415 336 334 274 243 241 228 213 209 200 214 234 208 202 207 207 172 91 83 90 95 92 99 98 93 147 163 94
327 394 401 399 400 393 398 394 412 478 501 447 368 388 429 446 345 337 337 257 238 245 224 216 217 202 209 234 206 209 202 201 167 87 188 94 92 209 190 87 112 107 95
418 417 422 414 396 388 391 400 470 500 495 471 372 374 409 434 381 332 340 331 249 237 241 215 208 207 199 211 223 206 203 201 204 144 198 152 233 210 209 211 140 98 93
413 442 416 433 398 396 396 431 466 479 482 441 414 360 392 417 448 344 332 336 334 250 242 235 213 208 197 198 199 211 204 203 201 202 207 211 200 196 200 171 182 175 93
425 424 415 387 400 388 392 430 442 447 455 417 394 350 377 406 434 364 319 334 333 314 248 235 231 211 209 194 186 197 209 203 210 215 201 208 212 212 204 205 192 209 194
429 405 387 389 376 383 371 415 423 423 426 402 380 342 369 394 416 448 312 323 324 326 271 248 229 214 211 202 198 185 184 186 200 198 204 207 206 207 210 206 123 202 211
414 383 370 364 381 374 354 382 398 399 399 392 372 337 359 385 404 434 334 309 325 322 323 247 240 216 210 211 204 206 196 189 195 214 200 197 194 205 199 211 199 205 206
363 373 379 362 369 369 382 355 373 371 380 384 375 351 346 369 395 421 390 312 313 322 317 274 242 233 217 214 215 189 193 184 199 182 196 194 183 194 185 198 196 199 207
345 350 356 370 383 377 363 374 356 349 356 360 361 375 337 362 380 405 439 322 303 316 308 310 262 239 224 217 213 205 211 181 191 177 194 192 195 186 184 199 195 187 206
Wind_Speed
108 110 115 117 113 122 120 113 110 111 85 107 106 80 71 72 100 99 93 85 60 61 68 85 76 62 60 51 61 75 46 56 60 42 47 47 39 35 46 33 37 32 24
107 113 112 123 121 121 120 128 128 118 117 86 116 111 90 85 99 79 98 101 79 75 94 69 61 59 71 63 70 50 52 58 58 45 45 43 63 44 44 42 30 37 30
106 106 120 121 121 124 126 126 118 130 127 74 118 120 103 116 79 107 97 70 72 70 78 67 64 61 59 78 80 55 73 73 77 60 46 61 51 48 40 43 28 33 34
93 113 111 115 123 128 128 130 133 132 132 125 107 122 100 120 118 76 107 108 103 72 71 71 66 63 62 60 56 54 70 56 80 76 70 76 41 62 40 40 37 35 36
99 101 108 121 122 123 133 134 133 140 136 134 130 128 122 124 94 91 94 80 110 105 75 72 67 66 64 63 69 57 55 52 65 52 50 57 57 56 52 46 41 46 55
110 110 113 117 121 134 133 134 140 138 129 85 134 132 134 130 118 120 124 120 94 108 109 106 90 69 67 66 72 61 59 55 54 52 76 54 68 58 57 56 57 49 42
111 117 126 124 123 128 134 141 139 145 142 139 139 139 137 131 134 106 131 120 115 102 102 79 75 71 76 71 69 61 63 73 58 56 52 75 57 52 49 44 53 47 52
114 118 129 138 137 137 135 140 148 145 149 146 141 141 112 141 123 138 127 104 88 104 95 116 111 84 72 70 66 69 68 83 65 64 57 63 55 67 53 60 49 57 48
109 110 113 116 122 132 141 144 146 148 134 152 148 145 142 112 103 140 140 135 129 89 115 118 92 101 83 68 72 70 69 66 65 61 61 65 64 65 59 62 55 54 51
108 109 110 112 115 118 121 129 149 150 151 154 154 150 146 141 144 73 142 139 120 116 127 125 125 90 96 98 92 68 72 87 69 68 61 75 67 68 69 62 53 56 55
61 62 62 63 63 110 116 118 123 135 153 154 158 157 150 147 144 145 112 70 133 130 129 113 124 119 96 113 88 89 100 101 98 91 87 93 83 75 70 62 64 58 63
57 58 59 61 63 66 67 68 116 119 127 153 157 160 158 153 149 144 144 143 102 116 123 133 118 106 107 111 95 94 112 99 103 82 90 80 83 75 68 60 65 66 62
56 58 60 61 63 65 66 68 69 91 119 123 155 155 162 160 156 149 145 143 143 142 141 122 137 104 114 99 98 99 97 100 77 90 55 99 92 78 74 69 67 61 58
56 60 61 62 64 65 68 69 68 70 72 123 128 158 156 163 162 156 149 144 142 139 136 129 128 127 127 126 116 114 87 101 112 97 67 104 82 87 77 61 66 83 52
54 58 60 61 63 66 69 70 70 71 74 74 116 131 158 163 163 163 156 149 144 140 135 130 122 73 100 124 74 69 127 121 99 72 97 83 97 99 63 88 90 73 75
54 57 60 62 65 68 71 72 73 73 73 76 74 73 134 152 165 162 162 156 148 143 136 133 130 103 75 99 84 88 76 123 112 109 79 101 85 86 79 79 75 83 90
57 59 61 63 66 65 66 66 66 75 74 77 76 74 79 136 148 162 161 162 155 144 141 135 132 127 123 110 123 70 133 71 112 80 99 72 57 97 85 94 72 84 89
58 59 62 60 58 58 55 56 58 62 66 76 78 78 75 115 137 146 166 162 162 153 141 139 133 127 122 122 126 127 129 124 77 57 66 70 62 62 61 62 84 80 64
58 59 54 50 49 52 51 53 55 52 52 67 78 77 74 77 132 135 143 165 159 159 149 141 139 130 121 122 126 125 129 131 118 66 123 78 66 108 99 61 72 65 66
50 47 44 40 42 44 45 48 42 40 46 57 75 76 73 73 133 132 133 144 164 156 156 144 138 134 128 122 122 126 129 132 128 101 121 100 97 110 105 95 80 72 62
41 33 34 32 34 36 38 35 31 32 38 54 65 74 71 71 67 132 131 133 141 163 158 152 144 137 133 126 124 132 134 130 130 127 124 118 114 106 101 98 98 92 55
31 25 21 24 24 26 27 23 23 27 33 50 62 73 69 67 65 131 129 131 131 145 160 152 152 140 139 133 132 132 133 130 128 124 118 117 113 110 106 103 102 87 99
22 16 16 14 17 19 20 17 18 23 31 46 59 70 65 63 64 64 128 129 129 130 160 157 154 142 143 138 132 133 131 126 122 119 120 117 113 109 106 104 76 100 95
20 14 12 14 13 14 17 13 15 23 32 43 56 68 63 61 62 62 131 126 127 128 131 156 158 147 145 144 136 138 129 123 123 122 121 112 108 109 107 108 104 103 101
17 15 13 11 10 10 9 14 16 23 29 37 48 61 63 59 59 60 96 125 123 125 129 154 159 156 150 147 143 130 137 127 127 118 118 117 109 105 106 111 105 96 99
16 18 17 16 12 8 8 9 18 23 29 35 42 46 63 60 60 59 60 128 122 125 129 131 161 161 153 151 140 139 137 127 118 121 123 115 112 108 108 108 108 99 99
Wind_Direction
245 248 244 240 246 241 242 243 241 237 240 245 240 235 233 235 235 236 245 249 236 235 238 242 247 238 243 239 241 256 241 252 256 253 248 259 253 251 258 261 261 262 270
248 246 246 243 239 240 242 239 241 240 237 240 237 243 238 241 246 239 235 236 238 242 243 237 233 235 241 241 247 243 243 248 258 249 248 249 264 258 256 259 262 262 267
249 249 246 243 245 245 237 237 245 238 237 233 239 235 246 235 234 238 245 235 236 234 239 231 232 233 237 251 251 243 251 254 258 246 251 252 252 253 255 258 257 256 262
255 249 248 245 245 241 242 240 238 237 236 236 240 238 236 241 239 232 239 234 237 236 235 232 232 233 236 237 237 240 249 245 257 257 258 262 250 262 250 252 252 255 258
263 257 250 248 245 242 241 238 240 238 234 234 233 233 234 237 235 236 239 233 238 236 235 235 233 233 234 236 241 237 239 240 251 247 248 252 257 255 272 255 266 261 270
266 259 254 248 247 245 242 240 237 236 238 241 233 233 232 232 241 242 233 240 243 237 237 239 243 234 234 236 241 235 236 236 240 242 255 249 257 253 267 260 262 272 256
262 256 252 249 246 244 242 241 238 237 235 236 238 232 231 235 231 238 230 240 242 244 236 234 236 236 235 235 236 239 237 246 237 238 239 256 244 247 248 247 256 254 266
265 261 256 250 246 246 242 240 238 235 236 234 234 235 237 231 240 231 235 232 235 237 238 240 237 236 236 236 235 236 240 246 238 241 235 245 245 260 251 260 250 264 256
270 266 262 258 256 251 247 241 238 233 237 234 233 233 234 235 234 232 231 233 234 234 243 240 234 236 237 238 238 235 235 238 240 240 237 244 251 253 253 260 267 249 253
273 268 263 259 255 252 248 245 239 235 230 232 232 232 232 232 234 242 230 231 237 237 237 235 240 236 237 245 242 237 236 247 241 245 243 247 248 249 254 256 249 249 250
270 269 267 265 263 253 250 246 243 239 233 229 230 231 231 232 231 233 235 243 234 232 235 237 238 241 244 244 239 245 247 247 248 251 252 255 256 250 254 256 255 248 257
270 268 266 262 260 257 254 252 242 238 235 232 229 229 229 230 232 231 233 233 236 234 235 233 239 240 242 245 243 246 247 246 249 244 251 253 252 252 252 250 257 258 256
270 267 265 263 260 258 255 252 248 241 234 231 231 229 228 228 229 231 230 232 232 234 235 235 237 235 241 239 241 241 244 248 241 248 233 254 254 251 253 252 252 255 264
269 269 266 264 262 259 256 253 249 244 242 231 228 231 228 227 227 228 230 230 231 232 233 233 236 237 238 238 242 245 239 245 248 249 242 253 249 256 250 245 253 267 253
269 268 267 264 261 259 255 253 249 244 240 237 229 226 229 226 227 226 227 229 229 230 232 231 232 234 235 236 242 236 243 242 244 234 249 243 253 258 248 260 267 263 264
278 274 271 266 262 259 256 252 248 244 239 236 233 236 224 227 224 226 226 227 229 229 229 232 232 232 233 234 237 238 239 245 247 249 243 252 246 249 252 257 257 262 269
280 276 273 270 266 266 261 257 253 244 238 233 232 232 231 223 225 222 225 225 227 227 228 229 231 231 229 233 234 237 239 239 244 245 248 244 237 254 254 262 251 264 268
283 279 278 277 273 267 264 260 254 247 242 232 229 228 230 216 221 223 220 224 225 226 226 228 228 230 229 229 234 235 239 241 242 242 246 247 244 245 236 237 256 253 252
288 287 282 275 271 267 265 259 258 257 248 233 226 227 228 227 218 219 220 221 223 223 225 226 229 227 226 225 231 233 237 240 242 243 246 249 246 251 250 245 250 251 251
299 294 286 277 268 267 264 265 268 255 242 228 223 224 226 226 211 218 217 219 220 223 221 224 225 227 225 227 225 231 234 238 241 243 245 247 235 249 251 249 250 250 252
302 299 287 279 271 268 270 277 266 251 235 222 218 222 225 224 223 213 216 216 218 219 221 219 224 225 225 223 224 225 231 235 238 241 243 245 247 248 248 246 252 252 244
313 308 296 284 279 276 275 277 258 241 228 219 215 220 223 223 223 210 214 215 214 216 218 218 221 223 226 223 225 228 227 234 235 237 244 245 245 248 250 252 255 245 260
329 318 306 295 287 280 269 271 247 234 224 217 214 218 223 223 223 221 212 213 212 213 215 216 219 221 224 224 224 228 232 234 236 239 241 242 245 247 247 249 247 253 249
355 339 329 315 311 286 268 259 238 230 224 219 216 217 222 224 223 222 209 211 211 211 211 214 217 219 222 224 223 227 229 231 234 231 240 242 241 245 249 246 251 252 255
13 13 7 337 328 302 289 251 234 228 228 226 222 219 220 224 225 224 213 209 210 209 209 211 215 216 220 223 225 224 228 230 231 235 238 241 243 245 247 249 252 252 253
27 30 26 20 14 339 296 262 240 231 230 228 226 228 220 223 224 224 221 209 207 208 207 207 211 214 218 222 222 224 226 231 228 236 237 240 243 244 248 250 251 255 255